OBJECT BR, 62672

Orbit data source: Space-Track

You're viewing an uncataloged RSO

Recently launched and/or uncataloged RSOs may have evolving metadata. Metadata may include the following, but is not limited to: Owner, Manufacturer, Bus, Motor, and Mission.

OBJECT BR, 62672 is a satellite in SSO that was launched on Tue, 14 Jan 2025 UTC via an FALCON 9 launch vehicle from the Air Force Western Test Range (AFWTR). Unknown objects in Earth's orbit typically refer to objects detected orbiting the Earth but have not yet been identified or cataloged. These objects could be anything from previously untracked satellites, spent rocket stages, debris from satellite collisions, or even natural meteoroids temporarily captured by Earth's gravity.

Loading next visibility...
Identifier
62672, 2025-009BR
Orbit
SSO
Country
Flag of TBDTBD
Related business
None
Manufacturer
Unknown
Mission
Operational Commercial Communications
Bus & Motor
Unknown
Mass
Unknown
Launch date (UTC)
2025-01-14 (2 years ago)
Launch vehicle
FALCON 9
Launch site
Air Force Western Test Range (AFWTR)
Object type
Unknown
Shape & HBR
Box + 2 Pan, 0.4 m
Radar Cross Section
0.014 m², Medium (>0.1 m² and < 1m²)

Expand to show TLE details & history
Last TLE update: 9 hours ago

TLE from 9 hours ago
0 OBJECT BR
1 62672U 25009BR  26238.19308080  .00003466  00000-0  14852-3 0  9991
2 62672  97.3919 316.2355 0006299  90.5387 269.6572 15.23414845147046
Epoch: 2026-08-26T04:38Z
TLE epoch observation values (Epoch: 2026-08-26T04:38:02.181Z)
Latitude
0.00002°
Longitude
-87.72319°
Altitude
498.673 km
Speed
7.615 km/s
True Right ascension
21h 04m 56s
True Declination
0° 00' 00"
Sunlit
Object was in full shadow at epoch
Visualization orbit readout
Latitude
Unknown
Longitude
Unknown
Altitude
Unknown
Speed
Unknown
Apparent Right ascension
Unknown
Apparent Declination
Unknown
Sunlit
N/A
Visualization observer readout
Local Sidereal Time
04:37:12
Azimuth
Unknown
Elevation
Unknown
Doppler factor
Unknown
Orbital elements
Apogee altitude
496.838 km
Perigee altitude
488.182 km
Semi-major axis
6,870.647 km
Eccentricity
0.00063
Inclination
97.3919°
RAAN
316.2355°
Arg. of periapsis
90.5387°
True anomaly
269.58502°
Mean anomaly
269.6572°
Eccentric anomaly
269.62111°
Mean motion
3.81107 °/min
Orbital period
94.46 mins
BSTAR
0.00014852
Loading maneuver chart data...
Computing Atmospheric mass density...
Loading historical data...
Loading historical data...
Loading historical data...
Loading historical data...
Loading historical data...
Loading historical data...
Loading historical data...

Documentation

Showing up to 5 results
|